Regional Weather Roundup
Issued by NWS

Home | Current Version | Previous Version | Graphics & Text | Print | Product List | Glossary On
Versions: 1 2 3 4 5 6 7 8 9 10 11 12 13 14 15 16 17 18 19 20 21 22 23 24 25 26 27
000
ASUS45 KBOU 301907
RWRCO

WEATHER ROUNDUP FOR COLORADO
NATIONAL WEATHER SERVICE DENVER/BOULDER CO
100 PM MDT TUE AUG 30 2016

NOTE: "FAIR" INDICATES FEW OR NO CLOUDS BELOW 12000 FEET WITH NO
SIGNIFICANT WEATHER AND/OR OBSTRUCTIONS TO VISIBILITY.

COZ001>005-013-030-031-302000-
...NORTHWEST COLORADO...

CITY           SKY/WX    TMP DP  RH WIND       PRES   REMARKS
CRAIG          FAIR      81  33  17 E8        30.31F
HAYDEN         FAIR      75  36  23 E15       30.33F
MEEKER         FAIR      78  37  22 SW9       30.31F
MOUNT WERNER   NOT AVBL
STEAMBOAT SPGS FAIR      77  35  21 E10       30.34F
WALDEN         PTSUNNY   70  34  26 N6G16     30.46F
$$

COZ006>008-011-302000-
...WEST CENTRAL VALLEYS...

CITY           SKY/WX    TMP DP  RH WIND       PRES   REMARKS
GRAND JUNCTION FAIR      79  42  26 VRB5      30.24F
MONTROSE       FAIR      76  44  32 MISG      30.31F
EAGLE          SUNNY     72  37  28 CALM      30.37F
RIFLE          FAIR      77  42  28 VRB5      30.28F
DELTA          FAIR      80  40  23 CALM      30.28F
NUCLA          FAIR     N/A N/A N/A NW3       30.35F
$$

COZ017>023-064>068-302000-
...SOUTHWEST COLORADO...

CITY           SKY/WX    TMP DP  RH WIND       PRES   REMARKS
DURANGO        FAIR      74  42  31 VRB6      30.36F
CORTEZ         FAIR      76  46  34 VRB3      30.30F
PAGOSA SPRINGS FAIR      69  37  30 CALM      30.43F
TELLURIDE      CLOUDY    63  42  44 NW5       30.51F
WOLF CREEK PAS LGT RAIN  45  39  81 NE3       30.71F
$$

COZ009-010-012-014-032>034-037-058>063-302000-
...CENTRAL COLORADO...

CITY           SKY/WX    TMP DP  RH WIND       PRES   REMARKS
ASPEN          PTSUNNY   69  37  30 CALM      30.41F
BUENA VISTA    FAIR      65  39  38 SE6       30.46F
COPPER MTN     CLOUDY    54  34  47 CALM      30.71F
BERTHOUD PASS  CLOUDY    43  30  61 E21G30    30.74F THUNDER
COTTONWOOD PAS FAIR      64  41  42 E5        30.58F
GUNNISON       FAIR      66  39  37 W3        30.45F
KREMMLING      FAIR      73  32  21 NW5       30.41F
LEADVILLE      FAIR      58  39  49 MISG      30.56F
MONARCH PASS   CLOUDY    45  37  76 E3        30.81F
SALIDA         FAIR      68  43  39 CALM      30.51F
SUNLIGHT       FAIR      61  37  41 SW3       30.65F
WILKERSON PASS CLOUDY    48  37  66 CALM      30.70F
$$

COZ069>075-302000-
...SAN LUIS VALLEY/SANGRE DE CRISTO MOUNTAINS...

CITY           SKY/WX    TMP DP  RH WIND       PRES   REMARKS
ALAMOSA        FAIR      71  42  35 W6        30.42F
LA VETA PASS   PTSUNNY   59  43  55 MISG      30.61S
SAGUACHE       FAIR      64  43  45 S5        30.46F
$$

COZ035-036-038>040-302000-
...NORTHERN COLORADO FRONT RANGE...

CITY           SKY/WX    TMP DP  RH WIND       PRES   REMARKS
DENVER INTL AP FAIR      79  47  32 VRB7      30.31F
DMNS CITY PARK   N/A     78  45  31 NE2G9     30.31F
AURORA         MOSUNNY   77  46  33 VRB3      30.33F
FRONT RANGE AP NOT AVBL
ERIE MUNI ARPT FAIR      78  46  31 CALM      30.31F
BOULDER MUN AP FAIR      77  48  36 NE7       30.32F
CENTENNIAL     FAIR      76  43  30 CALM      30.34F
BROOMFIELD     PTSUNNY   77  46  33 NE6       30.34F
FORT COLLINS   FAIR      79  46  31 SW6       30.28F
LONGMONT       FAIR      80  49  33 SE3       30.32F
$$

COZ041-046-047-076>085-087-088-302000-
...PIKES PEAK/PALMER DIVIDE AND SOUTHERN FOOTHILLS...

CITY           SKY/WX    TMP DP  RH WIND       PRES   REMARKS
COLO. SPRINGS  FAIR      73  49  42 CALM      30.38F
A. F. ACADEMY  MOSUNNY   69  49  49 SW7       30.38F
SCHRIEVER AFB  NOT AVBL
ELLICOTT       NOT AVBL
FALCON         FAIR      71  45  39 SE7       30.42F
FORT CARSON    SUNNY     73  50  45 CALM      30.35F
LIMON          FAIR      74  48  39 S6        30.32F
MONUMENT HILL  FAIR      64  43  45 CALM      30.43F
TRINIDAD       PTSUNNY   75  49  39 VRB5      30.35F
$$

COZ042>045-048>051-090-091-302000-
...NORTHEAST COLORADO...

CITY           SKY/WX    TMP DP  RH WIND       PRES   REMARKS
GREELEY ARPT   FAIR      79  48  34 CALM      30.30F
AKRON          CLOUDY    79  51  37 NE5       30.28F
BURLINGTON     PTSUNNY   76  57  51 SE12      30.28F
WRAY           CLOUDY    77  57  50 SE6       30.25F
STERLING       CLOUDY    77  55  47 NE10G16   30.24F
HOLYOKE        FAIR      77  61  57 SE9       30.27F
FORT MORGAN    FAIR      82  51  34 SE3       30.29S
$$

COZ086-089-092>099-302000-
...SOUTHEAST COLORADO...

CITY           SKY/WX    TMP DP  RH WIND       PRES   REMARKS
PUEBLO         FAIR      80  53  39 CALM      30.28F
LA JUNTA       FAIR      80  56  43 SE7       30.26F
LAMAR          FAIR      77  58  51 E8        30.24F
SPRINGFIELD      N/A     71  56  58 S5        30.30F
$$




USA.gov is the U.S. government's official web portal to all federal, state and local government web resources and services.